| time (UTC) | temp C | wind direction | speed KPH | gust KPH | rain 1hr cm | rain 24hr cm | rain mn cm | humidity % | barometer mb |
| 20260504034558 | 18 | 289 | 4.8 | 20.9 | 0.00 | 0.00 | 0.00 | 44 | 993.2 |
| 20260504033058 | 18 | 285 | 0.0 | 16.1 | 0.00 | 0.00 | 0.00 | 44 | 993.6 |
| 20260504031628 | 17 | 278 | 8.0 | 25.7 | 0.00 | 0.00 | 0.00 | 45 | 993.6 |
| 20260504030056 | 17 | 245 | 16.1 | 22.5 | 0.00 | 0.00 | 0.00 | 45 | 992.7 |
| 20260504024554 | 17 | 239 | 11.3 | 22.5 | 0.00 | 0.00 | 0.00 | 46 | 993.0 |
| 20260504023052 | 17 | 243 | 11.3 | 19.3 | 0.00 | 0.00 | 0.00 | 45 | 993.3 |
| 20260504021554 | 17 | 248 | 12.9 | 22.5 | 0.00 | 0.00 | 0.00 | 44 | 993.7 |
| 20260504020047 | 18 | 271 | 12.9 | 17.7 | 0.00 | 0.00 | 0.00 | 43 | 994.0 |
| 20260504014544 | 18 | 243 | 12.9 | 16.1 | 0.00 | 0.00 | 0.00 | 41 | 994.4 |
| 20260504013040 | 20 | 245 | 11.3 | 20.9 | 0.00 | 0.00 | 0.00 | 39 | 994.8 |
| 20260504011538 | 21 | 260 | 14.5 | 22.5 | 0.00 | 0.00 | 0.00 | 37 | 995.2 |
| 20260504010041 | 21 | 259 | 12.9 | 24.1 | 0.00 | 0.00 | 0.00 | 36 | 995.5 |
| 20260504004533 | 21 | 262 | 14.5 | 25.7 | 0.00 | 0.00 | 0.00 | 35 | 996.0 |
| 20260504003031 | 22 | 286 | 19.3 | 32.2 | 0.00 | 0.00 | 0.00 | 34 | 996.3 |
| 20260504001529 | 22 | 278 | 19.3 | 32.2 | 0.00 | 0.00 | 0.00 | 31 | 996.5 |
| 20260504000026 | 23 | 302 | 20.9 | 32.2 | 0.00 | 0.00 | 0.00 | 29 | 996.9 |
| 20260503234527 | 22 | 306 | 20.9 | 33.8 | 0.00 | 0.00 | 0.00 | 30 | 997.2 |
| 20260503233022 | 22 | 250 | 17.7 | 37.0 | 0.00 | 0.00 | 0.00 | 32 | 997.5 |
| 20260503231521 | 22 | 293 | 19.3 | 33.8 | 0.00 | 0.00 | 0.00 | 30 | 997.8 |
| 20260503230117 | 23 | 283 | 24.1 | 37.0 | 0.00 | 0.00 | 0.00 | 29 | 998.1 |
| 20260503224515 | 22 | 281 | 20.9 | 33.8 | 0.00 | 0.00 | 0.00 | 31 | 998.5 |
| 20260503223022 | 23 | 257 | 27.4 | 37.0 | 0.00 | 0.00 | 0.00 | 31 | 998.8 |
| 20260503221509 | 22 | 273 | 19.3 | 30.6 | 0.00 | 0.00 | 0.00 | 33 | 999.2 |
| 20260503220011 | 21 | 285 | 17.7 | 33.8 | 0.00 | 0.00 | 0.00 | 35 | 999.7 |
| 20260503214505 | 21 | 264 | 20.9 | 37.0 | 0.00 | 0.00 | 0.00 | 33 | 999.9 |
| 20260503213003 | 22 | 281 | 27.4 | 40.2 | 0.00 | 0.00 | 0.00 | 32 | 1000.2 |
| 20260503211500 | 21 | 273 | 19.3 | 33.8 | 0.00 | 0.00 | 0.00 | 34 | 1000.7 |
| 20260503210100 | 22 | 255 | 19.3 | 33.8 | 0.00 | 0.00 | 0.00 | 35 | 1001.3 |
| 20260503204608 | 22 | 257 | 17.7 | 37.0 | 0.00 | 0.00 | 0.00 | 34 | 1001.9 |
| 20260503203054 | 22 | 295 | 14.5 | 30.6 | 0.00 | 0.00 | 0.00 | 35 | 1002.2 |
| 20260503201550 | 21 | 263 | 17.7 | 29.0 | 0.00 | 0.00 | 0.00 | 35 | 1002.7 |
| 20260503200046 | 21 | 283 | 19.3 | 33.8 | 0.00 | 0.00 | 0.00 | 34 | 1003.0 |
| 20260503194543 | 21 | 297 | 20.9 | 37.0 | 0.00 | 0.00 | 0.00 | 34 | 1003.5 |
| 20260503193042 | 21 | 286 | 20.9 | 35.4 | 0.00 | 0.00 | 0.00 | 35 | 1003.7 |
| 20260503191555 | 21 | 292 | 14.5 | 32.2 | 0.00 | 0.00 | 0.00 | 37 | 1003.8 |
| 20260503190037 | 20 | 271 | 19.3 | 35.4 | 0.00 | 0.00 | 0.00 | 38 | 1004.4 |
| 20260503184535 | 20 | 287 | 11.3 | 29.0 | 0.00 | 0.00 | 0.00 | 39 | 1004.9 |
| 20260503183040 | 20 | 302 | 14.5 | 35.4 | 0.00 | 0.00 | 0.00 | 37 | 1005.4 |
| 20260503181528 | 19 | 283 | 16.1 | 29.0 | 0.00 | 0.00 | 0.00 | 38 | 1005.9 |
| 20260503180031 | 19 | 276 | 16.1 | 24.1 | 0.00 | 0.00 | 0.00 | 38 | 1006.2 |
| 20260503174523 | 18 | 295 | 14.5 | 24.1 | 0.00 | 0.00 | 0.00 | 40 | 1006.7 |
| 20260503173018 | 18 | 298 | 12.9 | 24.1 | 0.00 | 0.00 | 0.00 | 40 | 1007.0 |
| 20260503171519 | 17 | 313 | 11.3 | 24.1 | 0.00 | 0.00 | 0.00 | 40 | 1007.4 |
| 20260503090105 | 3 | 300 | 0.0 | 0.0 | 0.00 | 0.00 | 0.00 | 72 | 1010.0 |
| 20260503081556 | 4 | 347 | 0.0 | 0.0 | 0.00 | 0.00 | 0.00 | 69 | 1009.7 |
| 20260503071602 | 5 | 323 | 0.0 | 0.0 | 0.00 | 0.00 | 0.00 | 69 | 1009.6 |
| 20260503054532 | 7 | 317 | 0.0 | 0.0 | 0.00 | 0.00 | 0.00 | 74 | 1009.2 |
| 20260503053020 | 8 | 297 | 0.0 | 1.6 | 0.00 | 0.00 | 0.00 | 73 | 1009.2 |
| 20260503051516 | 9 | 321 | 0.0 | 9.7 | 0.00 | 0.00 | 0.00 | 72 | 1009.1 |
| 20260503050016 | 9 | 359 | 0.0 | 14.5 | 0.00 | 0.00 | 0.00 | 71 | 1009.1 |
| 20260503044513 | 9 | 29 | 0.0 | 3.2 | 0.00 | 0.00 | 0.00 | 71 | 1009.1 |
| 20260503043015 | 10 | 44 | 0.0 | 9.7 | 0.00 | 0.00 | 0.00 | 70 | 1008.8 |
| 20260503041519 | 10 | 352 | 0.0 | 8.0 | 0.00 | 0.00 | 0.00 | 69 | 1008.8 |
| 20260503040016 | 10 | 356 | 0.0 | 12.9 | 0.00 | 0.00 | 0.00 | 69 | 1008.8 |